Regional Weather Roundup
Issued by NWS

Home | Current Version | Previous Version | Graphics & Text | Print | Product List | Glossary On
Versions: 1 2 3 4 5 6 7 8 9 10 11 12 13 14 15 16 17 18 19 20 21 22 23 24 25 26 27 28 29 30 31 32 33 34 35 36 37 38 39 40 41 42 43 44 45 46 47 48 49 50
000
ASUS45 KSLC 291110
RWRUT

UTAH REGIONAL WEATHER ROUNDUP
NATIONAL WEATHER SERVICE SALT LAKE CITY UT
400 AM MST MON DEC 29 2014

UTZ001>011-023>025-291200-

NORTHERN UTAH

CITY           SKY/WX    TMP DP  RH WIND       PRES   REMARKS
BRIGHAM CITY   CLOUDY    27  25  92 NW6       30.03S WCI  20
HILL AFB       LGT SNOW  25  23  93 N3        30.00S VSB 1
LOGAN          CLOUDY    19  17  92 NE5       30.02F WCI  12
OGDEN          LGT SNOW  25  24  96 N6        30.01S VSB 1   WCI  18
PROVO AIRPORT  MOCLDY    21  21 100 CALM      30.01F
SALT LAKE CITY LGT SNOW  27  25  92 N8        30.02R VSB 1   WCI  19
VERNAL         CLOUDY    19  11  70 W3        29.99S
WENDOVER       CLOUDY    28  18  64 NW9       30.03F WCI  20
HEBER CITY     FLURRIES  19  16  86 NE3       29.96S
WEST JORDAN    CLOUDY    25  25 100 CALM      30.00F

$$

UTZ012>022-026-027-291200-

SOUTHERN/CENTRAL UTAH

CITY           SKY/WX    TMP DP  RH WIND       PRES   REMARKS
BLANDING       PTCLDY    18  11  75 NE3       30.05S
BRYCE CANYON   MOCLDY     5   1  83 CALM      29.93F
CEDAR CITY     CLEAR     10   5  80 NE3       29.97F
DELTA          CLOUDY    25  24  99 CALM      30.01F
MILFORD        CLOUDY    17  13  84 CALM      30.01S
MOAB/CYNLANDS  LGT SNOW  24  21  88 W7        29.99S FOG     WCI  16
PRICE          CLOUDY    20  17  88 CALM      29.93F FOG
ST GEORGE      PTSUNNY   21   7  53 CALM      30.11F
KANAB          CLEAR     14   9  79 NE5       30.08S WCI   6

$$

REGIONAL REPORTS     COLORADO/ARIZONA

CITY           SKY/WX    TMP DP  RH WIND       PRES   REMARKS
CRAIG, CO      CLOUDY    15  12  88 CALM      29.97S
GRAND JUNCTION CLOUDY    21  19  92 CALM      29.99F
RIFLE          LGT SNOW  20  17  88 S3        29.98F FOG
MONTROSE       LGT SNOW  20  17  88 SE9       30.00F FOG     WCI   9
CORTEZ         CLOUDY    11   7  84 CALM      30.00R
PAGE, AZ       CLEAR     26  11  52 CALM      30.01S
GRAND CANYON   CLEAR     10   5  80 NE8       30.05S WCI  -2
KINGMAN        CLEAR     27  12  53 SE8       30.08S WCI  19
FLAGSTAFF      CLEAR     20   9  62 SW6       30.01F WCI  12

$$

REGIONAL REPORTS    NEVADA/IDAHO/WYOMING

CITY           SKY/WX    TMP DP  RH WIND       PRES   REMARKS
LAS VEGAS, NV  CLEAR     33  14  45 SW8       30.08R WCI  26
ELY            CLOUDY    21  18  88 NW5       30.02R WCI  15
ELKO           FOG        7   5  91 SW5       30.05F VSB 1/4 WCI  -2
POCATELLO, ID  CLOUDY    22  20  92 N6        30.05S WCI  14
BURLEY         CLOUDY    26  21  81 CALM      30.03F
EVANSTON, WY   CLOUDY    12   9  87 E5        29.91S FOG     WCI   4
ROCK SPRINGS   LGT SNOW   9   5  84 NE13      29.97S FOG     WCI  -7
KEMMERER       CLOUDY     3   0  85 N9        29.93S WCI -11

$$



USA.gov is the U.S. government's official web portal to all federal, state and local government web resources and services.